Location: Follega
(52.8850°N, 5.7362°E)
Time: 21:42:56
(UTC+00:00)

CARTOSAT-1 - Pass Details

Date: 05 October 2020
Orbit: 616 x 619 km, 97.8° (Epoch: 22 October)

Event Time Altitude Azimuth Distance (km) Brightness Sun altitude
Exits shadow 20:24:07 20° 8° (N) 1,444 5.7 -29.6°
Drops below altitude 10° 20:25:37 10° 358° (N) 1,994 6.6 -29.8°
Sets 20:27:54 0° 351° (N) 2,904 7.6 -30.1°
